Terug naar catalogus

HULIANWANG DIGUI-80

ActiefCommunicatieLEO
NORAD 65312·PAYLOAD·🇨🇳 China

Gelanceerd Aug 25, 2025 vanaf Wenchang Space Launch Site

Loading…

Volgende Passages (komende 24 uur)

TLE

VersSource: Space-Track

Epoch: Sep 14, 2026, 21:50 UTC

1 65312U 25187H   26257.91017145 -.00000102  00000-0  47649-4 0  9998
2 65312  50.0016 244.1039 0000859 340.5505  19.5334 13.29325477 51631

Volg HULIANWANG DIGUI-80 in realtime met AllMySat

Download on the App Store